Location: Martz Observatory
(42.0083°N, 79.0667°W)
Time: 10:22:40
(UTC-04:00)

Meteor 1-27 - Pass Details

Date: 26 May 2018
Orbit: 837 x 893 km, 81.3° (Epoch: 22 September)

Event Time Altitude Azimuth Distance (km) Brightness Sun altitude
Rises 03:56:08 0° 347° (NNW) 3,438 7.9 -16.5°
Reaches altitude 10° 03:58:34 10° 344° (NNW) 2,506 7.1 -16.2°
Maximum altitude 04:04:11 65° 264° (W) 953 4.3 -15.5°
Enters shadow 04:09:02 15° 185° (S) 2,215 5.9 -14.9°
